Time,TemperatureF,DewpointF,PressureIn,WindDirection,WindDirectionDegrees,WindSpeedMPH,WindSpeedGustMPH,Humidity,HourlyPrecipIn,Conditions,Clouds,dailyrainin,SoftwareType,DateUTC
2013-07-20 00:02:00,77.5,66.2,-100.00,ENE,68,0.0,2.0,68,0.00,,,0.00,meteohub,2013-07-20 05:02:00,
2013-07-20 00:06:00,77.5,66.2,-100.00,SE,135,0.0,0.0,68,0.00,,,0.00,meteohub,2013-07-20 05:06:00,
2013-07-20 00:08:00,77.5,66.2,-100.00,SE,135,0.0,0.0,68,0.00,,,0.00,meteohub,2013-07-20 05:08:00,
2013-07-20 00:10:00,77.5,66.2,-100.00,ESE,113,0.0,0.0,68,0.00,,,0.00,meteohub,2013-07-20 05:10:00,
2013-07-20 00:12:00,77.5,66.2,-100.00,SSW,203,1.0,0.0,68,0.00,,,0.00,meteohub,2013-07-20 05:12:00,
2013-07-20 00:14:00,77.5,66.6,-100.00,SW,225,2.0,0.0,69,0.00,,,0.00,meteohub,2013-07-20 05:14:00,
2013-07-20 00:17:00,77.5,66.6,-100.00,ESE,113,0.0,1.0,69,0.00,,,0.00,meteohub,2013-07-20 05:17:00,
2013-07-20 00:18:00,77.5,66.9,-100.00,South,180,1.0,1.0,70,0.00,,,0.00,meteohub,2013-07-20 05:18:00,
2013-07-20 00:20:00,77.5,66.9,-100.00,SE,135,1.0,2.0,70,0.00,,,0.00,meteohub,2013-07-20 05:20:00,
2013-07-20 00:24:00,77.5,66.9,-100.00,South,180,4.0,4.0,70,0.00,,,0.00,meteohub,2013-07-20 05:24:00,
2013-07-20 00:28:00,77.5,66.9,-100.00,ESE,113,0.0,2.0,70,0.00,,,0.00,meteohub,2013-07-20 05:28:00,
2013-07-20 00:32:00,77.5,66.9,-100.00,East,90,0.0,4.0,70,0.00,,,0.00,meteohub,2013-07-20 05:32:00,
2013-07-20 00:39:00,77.5,67.5,-100.00,ESE,113,2.0,4.0,71,0.00,,,0.00,meteohub,2013-07-20 05:39:00,
2013-07-20 00:41:00,77.5,67.5,-100.00,ENE,68,0.0,4.0,71,0.00,,,0.00,meteohub,2013-07-20 05:41:00,
2013-07-20 00:47:00,77.4,67.3,-100.00,South,180,0.0,2.0,71,0.00,,,0.00,meteohub,2013-07-20 05:47:00,
2013-07-20 00:49:00,77.4,67.6,-100.00,ESE,113,0.0,2.0,72,0.00,,,0.00,meteohub,2013-07-20 05:49:00,
2013-07-20 00:53:00,77.2,67.5,-100.00,South,180,0.0,2.0,72,0.00,,,0.00,meteohub,2013-07-20 05:53:00,
2013-07-20 00:55:00,77.2,67.5,-100.00,SSW,203,1.0,2.0,72,0.00,,,0.00,meteohub,2013-07-20 05:55:00,
2013-07-20 00:59:00,77.2,67.5,-100.00,ENE,68,0.0,0.0,72,0.00,,,0.00,meteohub,2013-07-20 05:59:00,
2013-07-20 01:01:00,77.2,67.5,-100.00,ENE,68,0.0,1.0,72,0.00,,,0.00,meteohub,2013-07-20 06:01:00,
2013-07-20 01:02:00,77.2,67.5,-100.00,ENE,68,0.0,1.0,72,0.00,,,0.00,meteohub,2013-07-20 06:02:00,
2013-07-20 01:07:00,77.0,67.3,-100.00,SSE,158,0.0,1.0,72,0.00,,,0.00,meteohub,2013-07-20 06:07:00,
2013-07-20 01:11:00,77.0,67.6,-100.00,ENE,68,0.0,1.0,73,0.00,,,0.00,meteohub,2013-07-20 06:11:00,
2013-07-20 01:15:00,76.8,67.5,-100.00,SSE,158,0.0,0.0,73,0.00,,,0.00,meteohub,2013-07-20 06:15:00,
2013-07-20 01:17:00,76.8,67.5,-100.00,East,90,0.0,0.0,73,0.00,,,0.00,meteohub,2013-07-20 06:17:00,
2013-07-20 01:21:00,76.8,67.5,-100.00,SE,135,1.0,0.0,73,0.00,,,0.00,meteohub,2013-07-20 06:21:00,
2013-07-20 01:23:00,76.8,67.5,-100.00,ESE,113,0.0,0.0,73,0.00,,,0.00,meteohub,2013-07-20 06:23:00,
2013-07-20 01:27:00,76.6,67.3,-100.00,South,180,0.0,1.0,73,0.00,,,0.00,meteohub,2013-07-20 06:27:00,
2013-07-20 01:29:00,76.6,67.3,-100.00,ENE,68,0.0,1.0,73,0.00,,,0.00,meteohub,2013-07-20 06:29:00,
2013-07-20 01:33:00,76.6,67.3,-100.00,SSE,158,3.0,3.0,73,0.00,,,0.00,meteohub,2013-07-20 06:33:00,
2013-07-20 01:35:00,76.6,67.3,-100.00,WSW,248,0.0,3.0,73,0.00,,,0.00,meteohub,2013-07-20 06:35:00,
2013-07-20 01:40:00,76.5,67.6,-100.00,SW,225,1.0,3.0,74,0.00,,,0.00,meteohub,2013-07-20 06:40:00,
2013-07-20 01:44:00,76.5,67.6,-100.00,SSW,203,1.0,3.0,74,0.00,,,0.00,meteohub,2013-07-20 06:44:00,
2013-07-20 01:46:00,76.5,67.6,-100.00,SSW,203,1.0,3.0,74,0.00,,,0.00,meteohub,2013-07-20 06:46:00,
2013-07-20 01:47:00,76.3,67.5,-100.00,SSW,203,0.0,3.0,74,0.00,,,0.00,meteohub,2013-07-20 06:47:00,
2013-07-20 01:50:00,76.3,67.5,-100.00,SSW,203,0.0,3.0,74,0.00,,,0.00,meteohub,2013-07-20 06:50:00,
2013-07-20 01:54:00,76.3,67.5,-100.00,SE,135,0.0,1.0,74,0.00,,,0.00,meteohub,2013-07-20 06:54:00,
2013-07-20 01:56:00,76.3,67.5,-100.00,SW,225,0.0,1.0,74,0.00,,,0.00,meteohub,2013-07-20 06:56:00,
2013-07-20 02:00:00,76.1,67.3,-100.00,SW,225,0.0,2.0,74,0.00,,,0.00,meteohub,2013-07-20 07:00:00,
2013-07-20 02:02:00,76.1,67.3,-100.00,ESE,113,0.0,2.0,74,0.00,,,0.00,meteohub,2013-07-20 07:02:00,
2013-07-20 02:04:00,76.1,67.3,-100.00,SW,225,0.0,2.0,74,0.00,,,0.00,meteohub,2013-07-20 07:04:00,
2013-07-20 02:10:00,75.9,67.5,-100.00,SSE,158,0.0,2.0,75,0.00,,,0.00,meteohub,2013-07-20 07:10:00,
2013-07-20 02:12:00,75.9,67.5,-100.00,SSE,158,0.0,2.0,75,0.00,,,0.00,meteohub,2013-07-20 07:12:00,
2013-07-20 02:14:00,75.9,67.5,-100.00,SSE,158,3.0,3.0,75,0.00,,,0.00,meteohub,2013-07-20 07:14:00,
2013-07-20 02:16:00,75.9,67.5,-100.00,South,180,2.0,0.0,75,0.00,,,0.00,meteohub,2013-07-20 07:16:00,
2013-07-20 02:17:00,75.9,67.5,-100.00,South,180,2.0,0.0,75,0.00,,,0.00,meteohub,2013-07-20 07:17:00,
2013-07-20 02:20:00,75.9,67.8,-100.00,SE,135,1.0,3.0,76,0.00,,,0.00,meteohub,2013-07-20 07:20:00,
2013-07-20 02:22:00,75.9,67.8,-100.00,SE,135,1.0,3.0,76,0.00,,,0.00,meteohub,2013-07-20 07:22:00,
2013-07-20 02:27:00,75.7,67.6,-100.00,SE,135,1.0,3.0,76,0.00,,,0.00,meteohub,2013-07-20 07:27:00,
2013-07-20 02:29:00,75.7,67.6,-100.00,SE,135,1.0,3.0,76,0.00,,,0.00,meteohub,2013-07-20 07:29:00,
2013-07-20 02:31:00,75.7,67.6,-100.00,SSW,203,0.0,3.0,76,0.00,,,0.00,meteohub,2013-07-20 07:31:00,
2013-07-20 02:32:00,75.7,67.6,-100.00,SSW,203,0.0,3.0,76,0.00,,,0.00,meteohub,2013-07-20 07:32:00,
2013-07-20 02:37:00,75.6,67.5,-100.00,SSW,203,0.0,1.0,76,0.00,,,0.00,meteohub,2013-07-20 07:37:00,
2013-07-20 02:41:00,75.6,67.5,-100.00,South,180,0.0,1.0,76,0.00,,,0.00,meteohub,2013-07-20 07:41:00,
2013-07-20 02:43:00,75.6,67.5,-100.00,South,180,1.0,1.0,76,0.00,,,0.00,meteohub,2013-07-20 07:43:00,
2013-07-20 02:47:00,75.4,67.3,-100.00,SSW,203,0.0,1.0,76,0.00,,,0.00,meteohub,2013-07-20 07:47:00,
2013-07-20 02:51:00,75.4,67.3,-100.00,SW,225,0.0,1.0,76,0.00,,,0.00,meteohub,2013-07-20 07:51:00,
2013-07-20 02:53:00,75.4,67.3,-100.00,South,180,0.0,1.0,76,0.00,,,0.00,meteohub,2013-07-20 07:53:00,
2013-07-20 02:55:00,75.4,67.6,-100.00,SE,135,0.0,1.0,77,0.00,,,0.00,meteohub,2013-07-20 07:55:00,
2013-07-20 02:59:00,75.2,67.5,-100.00,SE,135,0.0,1.0,77,0.00,,,0.00,meteohub,2013-07-20 07:59:00,
2013-07-20 03:01:00,75.0,67.3,-100.00,SE,135,0.0,0.0,77,0.00,,,0.00,meteohub,2013-07-20 08:01:00,
2013-07-20 03:03:00,75.0,67.3,-100.00,SSW,203,0.0,0.0,77,0.00,,,0.00,meteohub,2013-07-20 08:03:00,
2013-07-20 03:07:00,75.0,67.3,-100.00,SE,135,0.0,0.0,77,0.00,,,0.00,meteohub,2013-07-20 08:07:00,
2013-07-20 03:09:00,75.0,67.6,-100.00,South,180,0.0,0.0,78,0.00,,,0.00,meteohub,2013-07-20 08:09:00,
2013-07-20 03:13:00,75.0,67.6,-100.00,SSE,158,0.0,0.0,78,0.00,,,0.00,meteohub,2013-07-20 08:13:00,
2013-07-20 03:15:00,75.0,67.6,-100.00,SSE,158,0.0,0.0,78,0.00,,,0.00,meteohub,2013-07-20 08:15:00,
2013-07-20 03:17:00,74.8,67.5,-100.00,SSE,158,0.0,0.0,78,0.00,,,0.00,meteohub,2013-07-20 08:17:00,
2013-07-20 03:23:00,74.8,67.5,-100.00,SSE,158,0.0,0.0,78,0.00,,,0.00,meteohub,2013-07-20 08:23:00,
2013-07-20 03:29:00,74.8,67.5,-100.00,SSE,158,0.0,0.0,78,0.00,,,0.00,meteohub,2013-07-20 08:29:00,
2013-07-20 03:31:00,74.7,67.3,-100.00,SSE,158,0.0,0.0,78,0.00,,,0.00,meteohub,2013-07-20 08:31:00,
2013-07-20 03:33:00,74.7,67.3,-100.00,SSE,158,0.0,0.0,78,0.00,,,0.00,meteohub,2013-07-20 08:33:00,
2013-07-20 03:35:00,74.7,67.3,-100.00,SSE,158,0.0,0.0,78,0.00,,,0.00,meteohub,2013-07-20 08:35:00,
2013-07-20 03:41:00,74.5,67.1,-100.00,SSW,203,0.0,0.0,78,0.00,,,0.00,meteohub,2013-07-20 08:41:00,
2013-07-20 03:43:00,74.3,66.9,-100.00,SSW,203,0.0,0.0,78,0.00,,,0.00,meteohub,2013-07-20 08:43:00,
2013-07-20 03:45:00,74.3,66.9,-100.00,SSW,203,0.0,0.0,78,0.00,,,0.00,meteohub,2013-07-20 08:45:00,
2013-07-20 03:47:00,74.5,67.1,-100.00,SSW,203,0.0,0.0,78,0.00,,,0.00,meteohub,2013-07-20 08:47:00,
2013-07-20 03:49:00,74.3,67.3,-100.00,SSW,203,0.0,0.0,79,0.00,,,0.00,meteohub,2013-07-20 08:49:00,
2013-07-20 03:51:00,74.3,67.3,-100.00,SSW,203,0.0,0.0,79,0.00,,,0.00,meteohub,2013-07-20 08:51:00,
2013-07-20 03:56:00,74.3,67.3,-100.00,South,180,0.0,0.0,79,0.00,,,0.00,meteohub,2013-07-20 08:56:00,
2013-07-20 03:58:00,74.1,67.1,-100.00,South,180,0.0,0.0,79,0.00,,,0.00,meteohub,2013-07-20 08:58:00,
2013-07-20 04:00:00,74.1,67.1,-100.00,South,180,0.0,0.0,79,0.00,,,0.00,meteohub,2013-07-20 09:00:00,
2013-07-20 04:02:00,74.1,67.1,-100.00,South,180,0.0,0.0,79,0.00,,,0.00,meteohub,2013-07-20 09:02:00,
2013-07-20 04:06:00,73.9,67.1,-100.00,South,180,0.0,0.0,79,0.00,,,0.00,meteohub,2013-07-20 09:06:00,
2013-07-20 04:10:00,73.9,67.5,-100.00,South,180,0.0,0.0,80,0.00,,,0.00,meteohub,2013-07-20 09:10:00,
2013-07-20 04:12:00,73.9,67.5,-100.00,South,180,0.0,0.0,80,0.00,,,0.00,meteohub,2013-07-20 09:12:00,
2013-07-20 04:14:00,73.9,67.5,-100.00,South,180,0.0,0.0,80,0.00,,,0.00,meteohub,2013-07-20 09:14:00,
2013-07-20 04:16:00,73.8,67.3,-100.00,South,180,0.0,0.0,80,0.00,,,0.00,meteohub,2013-07-20 09:16:00,
2013-07-20 04:18:00,73.8,67.3,-100.00,South,180,0.0,0.0,80,0.00,,,0.00,meteohub,2013-07-20 09:18:00,
2013-07-20 04:20:00,73.8,67.3,-100.00,South,180,0.0,0.0,80,0.00,,,0.00,meteohub,2013-07-20 09:20:00,
2013-07-20 04:22:00,73.8,67.3,-100.00,South,180,0.0,0.0,80,0.00,,,0.00,meteohub,2013-07-20 09:22:00,
2013-07-20 04:26:00,73.6,67.1,-100.00,South,180,0.0,0.0,80,0.00,,,0.00,meteohub,2013-07-20 09:26:00,
2013-07-20 04:30:00,73.4,66.9,-100.00,South,180,0.0,0.0,80,0.00,,,0.00,meteohub,2013-07-20 09:30:00,
2013-07-20 04:32:00,73.2,66.7,-100.00,South,180,0.0,0.0,80,0.00,,,0.00,meteohub,2013-07-20 09:32:00,
2013-07-20 04:34:00,73.2,66.7,-100.00,South,180,0.0,0.0,80,0.00,,,0.00,meteohub,2013-07-20 09:34:00,
2013-07-20 04:36:00,73.2,67.1,-100.00,South,180,0.0,0.0,81,0.00,,,0.00,meteohub,2013-07-20 09:36:00,
2013-07-20 04:38:00,73.2,67.1,-100.00,South,180,0.0,0.0,81,0.00,,,0.00,meteohub,2013-07-20 09:38:00,
2013-07-20 04:42:00,73.0,66.9,-100.00,South,180,0.0,0.0,81,0.00,,,0.00,meteohub,2013-07-20 09:42:00,
2013-07-20 04:44:00,72.9,66.7,-100.00,South,180,0.0,0.0,81,0.00,,,0.00,meteohub,2013-07-20 09:44:00,
2013-07-20 04:46:00,73.0,66.9,-100.00,South,180,0.0,0.0,81,0.00,,,0.00,meteohub,2013-07-20 09:46:00,
2013-07-20 04:50:00,72.7,66.6,-100.00,South,180,0.0,0.0,81,0.00,,,0.00,meteohub,2013-07-20 09:50:00,
2013-07-20 04:52:00,72.7,66.6,-100.00,South,180,0.0,0.0,81,0.00,,,0.00,meteohub,2013-07-20 09:52:00,
2013-07-20 04:56:00,72.7,66.9,-100.00,South,180,0.0,0.0,82,0.00,,,0.00,meteohub,2013-07-20 09:56:00,
2013-07-20 04:58:00,72.7,66.9,-100.00,South,180,0.0,0.0,82,0.00,,,0.00,meteohub,2013-07-20 09:58:00,
2013-07-20 05:02:00,72.5,66.7,-100.00,South,180,0.0,0.0,82,0.00,,,0.00,meteohub,2013-07-20 10:02:00,
2013-07-20 05:09:00,72.3,66.6,-100.00,South,180,0.0,0.0,82,0.00,,,0.00,meteohub,2013-07-20 10:09:00,
2013-07-20 05:11:00,72.3,66.6,-100.00,South,180,0.0,0.0,82,0.00,,,0.00,meteohub,2013-07-20 10:11:00,
2013-07-20 05:13:00,72.3,66.6,-100.00,South,180,0.0,0.0,82,0.00,,,0.00,meteohub,2013-07-20 10:13:00,
2013-07-20 05:15:00,72.3,66.6,-100.00,South,180,0.0,0.0,82,0.00,,,0.00,meteohub,2013-07-20 10:15:00,
2013-07-20 05:21:00,72.1,66.4,-100.00,South,180,0.0,0.0,82,0.00,,,0.00,meteohub,2013-07-20 10:21:00,
2013-07-20 05:23:00,72.1,66.4,-100.00,South,180,0.0,0.0,82,0.00,,,0.00,meteohub,2013-07-20 10:23:00,
2013-07-20 05:25:00,72.1,66.4,-100.00,South,180,0.0,0.0,82,0.00,,,0.00,meteohub,2013-07-20 10:25:00,
2013-07-20 05:29:00,72.1,66.4,-100.00,South,180,0.0,0.0,82,0.00,,,0.00,meteohub,2013-07-20 10:29:00,
2013-07-20 05:31:00,72.0,66.6,-100.00,South,180,0.0,0.0,83,0.00,,,0.00,meteohub,2013-07-20 10:31:00,
2013-07-20 05:33:00,72.0,66.6,-100.00,South,180,0.0,0.0,83,0.00,,,0.00,meteohub,2013-07-20 10:33:00,
2013-07-20 05:35:00,71.8,66.4,-100.00,South,180,0.0,0.0,83,0.00,,,0.00,meteohub,2013-07-20 10:35:00,
2013-07-20 05:39:00,71.8,66.4,-100.00,South,180,0.0,0.0,83,0.00,,,0.00,meteohub,2013-07-20 10:39:00,
2013-07-20 05:43:00,71.8,66.4,-100.00,South,180,0.0,0.0,83,0.00,,,0.00,meteohub,2013-07-20 10:43:00,
2013-07-20 05:45:00,71.8,66.4,-100.00,South,180,0.0,0.0,83,0.00,,,0.00,meteohub,2013-07-20 10:45:00,
2013-07-20 05:47:00,71.8,66.4,-100.00,South,180,0.0,0.0,83,0.00,,,0.00,meteohub,2013-07-20 10:47:00,
2013-07-20 05:53:00,71.4,66.0,-100.00,South,180,0.0,0.0,83,0.00,,,0.00,meteohub,2013-07-20 10:53:00,
2013-07-20 05:55:00,71.4,66.0,-100.00,South,180,0.0,0.0,83,0.00,,,0.00,meteohub,2013-07-20 10:55:00,
2013-07-20 05:57:00,71.4,66.0,-100.00,South,180,0.0,0.0,83,0.00,,,0.00,meteohub,2013-07-20 10:57:00,
2013-07-20 05:59:00,71.4,66.0,-100.00,South,180,0.0,0.0,83,0.00,,,0.00,meteohub,2013-07-20 10:59:00,
2013-07-20 06:02:00,71.4,66.0,-100.00,South,180,0.0,0.0,83,0.00,,,0.00,meteohub,2013-07-20 11:02:00,
2013-07-20 06:03:00,71.4,66.0,-100.00,South,180,0.0,0.0,83,0.00,,,0.00,meteohub,2013-07-20 11:03:00,
2013-07-20 06:05:00,71.4,66.4,-100.00,South,180,0.0,0.0,84,0.00,,,0.00,meteohub,2013-07-20 11:05:00,
2013-07-20 06:07:00,71.4,66.4,-100.00,South,180,0.0,0.0,84,0.00,,,0.00,meteohub,2013-07-20 11:07:00,
2013-07-20 06:13:00,71.4,66.4,-100.00,South,180,0.0,0.0,84,0.00,,,0.00,meteohub,2013-07-20 11:13:00,
2013-07-20 06:15:00,71.4,66.4,-100.00,South,180,0.0,0.0,84,0.00,,,0.00,meteohub,2013-07-20 11:15:00,
2013-07-20 06:17:00,71.4,66.4,-100.00,South,180,0.0,0.0,84,0.00,,,0.00,meteohub,2013-07-20 11:17:00,
2013-07-20 06:19:00,71.4,66.4,-100.00,South,180,0.0,0.0,84,0.00,,,0.00,meteohub,2013-07-20 11:19:00,
2013-07-20 06:21:00,71.2,66.2,-100.00,South,180,0.0,0.0,84,0.00,,,0.00,meteohub,2013-07-20 11:21:00,
2013-07-20 06:23:00,71.2,66.2,-100.00,South,180,0.0,0.0,84,0.00,,,0.00,meteohub,2013-07-20 11:23:00,
2013-07-20 06:25:00,71.2,66.2,-100.00,South,180,0.0,0.0,84,0.00,,,0.00,meteohub,2013-07-20 11:25:00,
2013-07-20 06:27:00,71.2,66.2,-100.00,South,180,0.0,0.0,84,0.00,,,0.00,meteohub,2013-07-20 11:27:00,
2013-07-20 06:29:00,71.2,66.2,-100.00,South,180,0.0,0.0,84,0.00,,,0.00,meteohub,2013-07-20 11:29:00,
2013-07-20 06:32:00,71.1,66.0,-100.00,South,180,0.0,0.0,84,0.00,,,0.00,meteohub,2013-07-20 11:32:00,
2013-07-20 06:35:00,70.9,66.2,-100.00,South,180,0.0,0.0,85,0.00,,,0.00,meteohub,2013-07-20 11:35:00,
2013-07-20 06:37:00,70.9,66.2,-100.00,South,180,0.0,0.0,85,0.00,,,0.00,meteohub,2013-07-20 11:37:00,
2013-07-20 06:39:00,70.9,66.2,-100.00,South,180,0.0,0.0,85,0.00,,,0.00,meteohub,2013-07-20 11:39:00,
2013-07-20 06:43:00,70.9,66.2,-100.00,South,180,0.0,0.0,85,0.00,,,0.00,meteohub,2013-07-20 11:43:00,
2013-07-20 06:45:00,70.9,66.2,-100.00,South,180,0.0,0.0,85,0.00,,,0.00,meteohub,2013-07-20 11:45:00,
2013-07-20 06:47:00,70.9,66.2,-100.00,South,180,0.0,0.0,85,0.00,,,0.00,meteohub,2013-07-20 11:47:00,
2013-07-20 06:51:00,70.9,66.2,-100.00,South,180,0.0,0.0,85,0.00,,,0.00,meteohub,2013-07-20 11:51:00,
2013-07-20 06:53:00,70.9,66.2,-100.00,South,180,0.0,0.0,85,0.00,,,0.00,meteohub,2013-07-20 11:53:00,
2013-07-20 06:55:00,70.9,66.2,-100.00,South,180,0.0,0.0,85,0.00,,,0.00,meteohub,2013-07-20 11:55:00,
2013-07-20 06:57:00,70.9,66.2,-100.00,South,180,0.0,0.0,85,0.00,,,0.00,meteohub,2013-07-20 11:57:00,
2013-07-20 07:01:00,70.9,66.2,-100.00,South,180,0.0,0.0,85,0.00,,,0.00,meteohub,2013-07-20 12:01:00,
2013-07-20 07:05:00,70.9,66.2,-100.00,South,180,0.0,0.0,85,0.00,,,0.00,meteohub,2013-07-20 12:05:00,
2013-07-20 07:07:00,70.9,66.2,-100.00,South,180,0.0,0.0,85,0.00,,,0.00,meteohub,2013-07-20 12:07:00,
2013-07-20 07:09:00,70.9,66.2,-100.00,South,180,0.0,0.0,85,0.00,,,0.00,meteohub,2013-07-20 12:09:00,
2013-07-20 07:16:00,70.7,66.4,-100.00,South,180,0.0,0.0,86,0.00,,,0.00,meteohub,2013-07-20 12:16:00,
2013-07-20 07:17:00,70.7,66.4,-100.00,South,180,0.0,0.0,86,0.00,,,0.00,meteohub,2013-07-20 12:17:00,
2013-07-20 07:20:00,70.7,66.4,-100.00,South,180,0.0,0.0,86,0.00,,,0.00,meteohub,2013-07-20 12:20:00,
2013-07-20 07:22:00,70.7,66.4,-100.00,South,180,0.0,0.0,86,0.00,,,0.00,meteohub,2013-07-20 12:22:00,
2013-07-20 07:24:00,70.7,66.4,-100.00,South,180,0.0,0.0,86,0.00,,,0.00,meteohub,2013-07-20 12:24:00,
2013-07-20 07:26:00,70.9,66.6,-100.00,South,180,0.0,0.0,86,0.00,,,0.00,meteohub,2013-07-20 12:26:00,
2013-07-20 07:28:00,70.9,66.6,-100.00,South,180,0.0,0.0,86,0.00,,,0.00,meteohub,2013-07-20 12:28:00,
2013-07-20 07:32:00,70.9,66.6,-100.00,South,180,0.0,0.0,86,0.00,,,0.00,meteohub,2013-07-20 12:32:00,
2013-07-20 07:34:00,71.1,66.7,-100.00,South,180,0.0,0.0,86,0.00,,,0.00,meteohub,2013-07-20 12:34:00,
2013-07-20 07:36:00,71.1,66.7,-100.00,South,180,0.0,0.0,86,0.00,,,0.00,meteohub,2013-07-20 12:36:00,
2013-07-20 07:40:00,71.2,66.9,-100.00,South,180,0.0,0.0,86,0.00,,,0.00,meteohub,2013-07-20 12:40:00,
2013-07-20 07:42:00,71.2,66.9,-100.00,South,180,0.0,0.0,86,0.00,,,0.00,meteohub,2013-07-20 12:42:00,
2013-07-20 07:46:00,71.4,67.1,-100.00,South,180,0.0,0.0,86,0.00,,,0.00,meteohub,2013-07-20 12:46:00,
2013-07-20 07:47:00,71.4,67.1,-100.00,South,180,0.0,0.0,86,0.00,,,0.00,meteohub,2013-07-20 12:47:00,
2013-07-20 07:50:00,71.4,67.3,-100.00,South,180,0.0,0.0,87,0.00,,,0.00,meteohub,2013-07-20 12:50:00,
2013-07-20 07:52:00,71.6,67.5,-100.00,South,180,0.0,0.0,87,0.00,,,0.00,meteohub,2013-07-20 12:52:00,
2013-07-20 07:58:00,71.8,67.6,-100.00,South,180,0.0,3.0,87,0.00,,,0.00,meteohub,2013-07-20 12:58:00,
2013-07-20 08:00:00,71.8,67.6,-100.00,South,180,0.0,3.0,87,0.00,,,0.00,meteohub,2013-07-20 13:00:00,
2013-07-20 08:02:00,72.0,67.8,-100.00,South,180,0.0,3.0,87,0.00,,,0.00,meteohub,2013-07-20 13:02:00,
2013-07-20 08:06:00,72.1,68.0,-100.00,SSW,203,2.0,0.0,87,0.00,,,0.00,meteohub,2013-07-20 13:06:00,
2013-07-20 08:08:00,72.3,68.2,-100.00,SE,135,0.0,0.0,87,0.00,,,0.00,meteohub,2013-07-20 13:08:00,
2013-07-20 08:10:00,72.3,68.2,-100.00,ESE,113,0.0,2.0,87,0.00,,,0.00,meteohub,2013-07-20 13:10:00,
2013-07-20 08:16:00,72.7,68.2,-100.00,SSW,203,0.0,2.0,86,0.00,,,0.00,meteohub,2013-07-20 13:16:00,
2013-07-20 08:17:00,72.7,68.2,-100.00,SSW,203,0.0,2.0,86,0.00,,,0.00,meteohub,2013-07-20 13:17:00,
2013-07-20 08:18:00,72.7,68.2,-100.00,SSW,203,0.0,2.0,86,0.00,,,0.00,meteohub,2013-07-20 13:18:00,
2013-07-20 08:24:00,73.0,68.5,-100.00,East,90,1.0,2.0,86,0.00,,,0.00,meteohub,2013-07-20 13:24:00,
2013-07-20 08:26:00,73.0,68.5,-100.00,South,180,1.0,2.0,86,0.00,,,0.00,meteohub,2013-07-20 13:26:00,
2013-07-20 08:28:00,73.2,68.7,-100.00,SSW,203,1.0,2.0,86,0.00,,,0.00,meteohub,2013-07-20 13:28:00,
2013-07-20 08:32:00,73.2,68.4,-100.00,SSW,203,0.0,1.0,85,0.00,,,0.00,meteohub,2013-07-20 13:32:00,
2013-07-20 08:34:00,73.6,68.7,-100.00,ESE,113,0.0,1.0,85,0.00,,,0.00,meteohub,2013-07-20 13:34:00,
2013-07-20 08:38:00,73.6,68.7,-100.00,SE,135,0.0,1.0,85,0.00,,,0.00,meteohub,2013-07-20 13:38:00,
2013-07-20 08:40:00,73.9,69.1,-100.00,SE,135,0.0,1.0,85,0.00,,,0.00,meteohub,2013-07-20 13:40:00,
2013-07-20 08:42:00,74.1,69.3,-100.00,NE,45,0.0,1.0,85,0.00,,,0.00,meteohub,2013-07-20 13:42:00,
2013-07-20 08:47:00,74.3,69.1,-100.00,South,180,0.0,0.0,84,0.00,,,0.00,meteohub,2013-07-20 13:47:00,
2013-07-20 08:48:00,74.3,69.1,-100.00,SSE,158,1.0,0.0,84,0.00,,,0.00,meteohub,2013-07-20 13:48:00,
2013-07-20 08:52:00,74.5,68.9,-100.00,SSE,158,3.0,3.0,83,0.00,,,0.00,meteohub,2013-07-20 13:52:00,
2013-07-20 08:54:00,74.7,69.1,-100.00,West,270,0.0,1.0,83,0.00,,,0.00,meteohub,2013-07-20 13:54:00,
2013-07-20 08:58:00,75.0,69.4,-100.00,West,270,0.0,3.0,83,0.00,,,0.00,meteohub,2013-07-20 13:58:00,
2013-07-20 09:00:00,75.0,69.4,-100.00,SE,135,1.0,3.0,83,0.00,,,0.00,meteohub,2013-07-20 14:00:00,
2013-07-20 09:02:00,75.2,69.3,-100.00,South,180,0.0,3.0,82,0.00,,,0.00,meteohub,2013-07-20 14:02:00,
2013-07-20 09:04:00,75.2,69.3,-100.00,South,180,0.0,3.0,82,0.00,,,0.00,meteohub,2013-07-20 14:04:00,
2013-07-20 09:08:00,75.6,69.3,-100.00,ESE,113,0.0,3.0,81,0.00,,,0.00,meteohub,2013-07-20 14:08:00,
2013-07-20 09:10:00,75.6,69.3,-100.00,NW,315,0.0,1.0,81,0.00,,,0.00,meteohub,2013-07-20 14:10:00,
2013-07-20 09:14:00,75.7,69.1,-100.00,SE,135,0.0,1.0,80,0.00,,,0.00,meteohub,2013-07-20 14:14:00,
2013-07-20 09:16:00,75.9,69.3,-100.00,SSE,158,1.0,1.0,80,0.00,,,0.00,meteohub,2013-07-20 14:16:00,
2013-07-20 09:17:00,75.9,69.3,-100.00,SSE,158,1.0,1.0,80,0.00,,,0.00,meteohub,2013-07-20 14:17:00,
2013-07-20 09:18:00,75.9,69.3,-100.00,South,180,6.0,6.0,80,0.00,,,0.00,meteohub,2013-07-20 14:18:00,
2013-07-20 09:24:00,76.8,69.8,-100.00,SSE,158,0.0,6.0,79,0.00,,,0.00,meteohub,2013-07-20 14:24:00,
2013-07-20 09:26:00,76.8,69.4,-100.00,SSW,203,2.0,6.0,78,0.00,,,0.00,meteohub,2013-07-20 14:26:00,
2013-07-20 09:30:00,77.4,69.6,-100.00,SSE,158,1.0,6.0,77,0.00,,,0.00,meteohub,2013-07-20 14:30:00,
2013-07-20 09:32:00,77.4,69.6,-100.00,SSE,158,1.0,6.0,77,0.00,,,0.00,meteohub,2013-07-20 14:32:00,
2013-07-20 09:37:00,77.5,69.8,-100.00,ENE,68,2.0,2.0,77,0.00,,,0.00,meteohub,2013-07-20 14:37:00,
2013-07-20 09:41:00,77.9,69.8,-100.00,SSE,158,0.0,2.0,76,0.00,,,0.00,meteohub,2013-07-20 14:41:00,
2013-07-20 09:43:00,78.1,70.0,-100.00,West,270,0.0,2.0,76,0.00,,,0.00,meteohub,2013-07-20 14:43:00,
2013-07-20 09:47:00,78.4,69.8,-100.00,South,180,4.0,4.0,75,0.00,,,0.00,meteohub,2013-07-20 14:47:00,
2013-07-20 09:49:00,78.6,69.6,-100.00,South,180,1.0,2.0,74,0.00,,,0.00,meteohub,2013-07-20 14:49:00,
2013-07-20 09:51:00,78.6,69.6,-100.00,South,180,2.0,4.0,74,0.00,,,0.00,meteohub,2013-07-20 14:51:00,
2013-07-20 09:53:00,78.6,69.6,-100.00,SE,135,1.0,4.0,74,0.00,,,0.00,meteohub,2013-07-20 14:53:00,
2013-07-20 09:55:00,78.6,69.3,-100.00,SSE,158,1.0,4.0,73,0.00,,,0.00,meteohub,2013-07-20 14:55:00,
2013-07-20 09:59:00,78.6,69.6,-100.00,NW,315,0.0,4.0,74,0.00,,,0.00,meteohub,2013-07-20 14:59:00,
2013-07-20 10:01:00,79.0,70.0,-100.00,SSE,158,0.0,4.0,74,0.00,,,0.00,meteohub,2013-07-20 15:01:00,
2013-07-20 10:02:00,79.0,70.0,-100.00,SSE,158,0.0,4.0,74,0.00,,,0.00,meteohub,2013-07-20 15:02:00,
2013-07-20 10:05:00,79.0,69.6,-100.00,South,180,0.0,2.0,73,0.00,,,0.00,meteohub,2013-07-20 15:05:00,
2013-07-20 10:07:00,79.0,69.6,-100.00,South,180,0.0,2.0,73,0.00,,,0.00,meteohub,2013-07-20 15:07:00,
2013-07-20 10:09:00,79.0,69.6,-100.00,SSE,158,1.0,2.0,73,0.00,,,0.00,meteohub,2013-07-20 15:09:00,
2013-07-20 10:11:00,79.0,69.6,-100.00,SSE,158,1.0,1.0,73,0.00,,,0.00,meteohub,2013-07-20 15:11:00,
2013-07-20 10:13:00,79.2,69.3,-100.00,SW,225,2.0,2.0,72,0.00,,,0.00,meteohub,2013-07-20 15:13:00,
2013-07-20 10:17:00,79.3,69.4,-100.00,SW,225,2.0,2.0,72,0.00,,,0.00,meteohub,2013-07-20 15:17:00,
2013-07-20 10:19:00,79.3,69.4,-100.00,East,90,1.0,2.0,72,0.00,,,0.00,meteohub,2013-07-20 15:19:00,
2013-07-20 10:21:00,79.5,69.6,-100.00,North,0,1.0,2.0,72,0.00,,,0.00,meteohub,2013-07-20 15:21:00,
2013-07-20 10:23:00,79.5,69.6,-100.00,SSE,158,0.0,2.0,72,0.00,,,0.00,meteohub,2013-07-20 15:23:00,
2013-07-20 10:25:00,79.5,69.3,-100.00,NNE,23,3.0,3.0,71,0.00,,,0.00,meteohub,2013-07-20 15:25:00,
2013-07-20 10:27:00,79.7,69.4,-100.00,ENE,68,1.0,3.0,71,0.00,,,0.00,meteohub,2013-07-20 15:27:00,
2013-07-20 10:29:00,79.9,69.6,-100.00,WSW,248,0.0,3.0,71,0.00,,,0.00,meteohub,2013-07-20 15:29:00,
2013-07-20 10:31:00,79.9,69.6,-100.00,South,180,4.0,4.0,71,0.00,,,0.00,meteohub,2013-07-20 15:31:00,
2013-07-20 10:33:00,80.1,69.8,-100.00,ESE,113,1.0,3.0,71,0.00,,,0.00,meteohub,2013-07-20 15:33:00,
2013-07-20 10:37:00,80.4,69.3,-100.00,SW,225,0.0,4.0,69,0.00,,,0.00,meteohub,2013-07-20 15:37:00,
2013-07-20 10:39:00,80.4,69.8,-100.00,West,270,0.0,4.0,70,0.00,,,0.00,meteohub,2013-07-20 15:39:00,
2013-07-20 10:41:00,80.4,69.3,-100.00,South,180,1.0,4.0,69,0.00,,,0.00,meteohub,2013-07-20 15:41:00,
2013-07-20 10:43:00,80.6,69.4,-100.00,NW,315,0.0,4.0,69,0.00,,,0.00,meteohub,2013-07-20 15:43:00,
2013-07-20 10:47:00,80.8,69.3,-100.00,South,180,0.0,4.0,68,0.00,,,0.00,meteohub,2013-07-20 15:47:00,
2013-07-20 10:53:00,81.0,69.4,-100.00,NE,45,0.0,1.0,68,0.00,,,0.00,meteohub,2013-07-20 15:53:00,
2013-07-20 10:55:00,81.1,69.6,-100.00,West,270,0.0,2.0,68,0.00,,,0.00,meteohub,2013-07-20 15:55:00,
2013-07-20 10:57:00,81.1,69.1,-100.00,SSW,203,2.0,2.0,67,0.00,,,0.00,meteohub,2013-07-20 15:57:00,
2013-07-20 10:59:00,81.3,68.9,-100.00,South,180,0.0,2.0,66,0.00,,,0.00,meteohub,2013-07-20 15:59:00,
2013-07-20 11:02:00,81.3,68.9,-100.00,WSW,248,2.0,2.0,66,0.00,,,0.00,meteohub,2013-07-20 16:02:00,
2013-07-20 11:03:00,81.5,69.1,-100.00,South,180,1.0,2.0,66,0.00,,,0.00,meteohub,2013-07-20 16:03:00,
2013-07-20 11:07:00,81.7,68.7,-100.00,SE,135,0.0,2.0,65,0.00,,,0.00,meteohub,2013-07-20 16:07:00,
2013-07-20 11:10:00,81.9,68.5,-100.00,South,180,0.0,2.0,64,0.00,,,0.00,meteohub,2013-07-20 16:10:00,
2013-07-20 11:12:00,81.9,68.5,-100.00,South,180,4.0,4.0,64,0.00,,,0.00,meteohub,2013-07-20 16:12:00,
2013-07-20 11:14:00,82.0,67.6,-100.00,SSE,158,1.0,2.0,62,0.00,,,0.00,meteohub,2013-07-20 16:14:00,
2013-07-20 11:16:00,82.0,67.6,-100.00,SSW,203,0.0,4.0,62,0.00,,,0.00,meteohub,2013-07-20 16:16:00,
2013-07-20 11:17:00,82.0,67.6,-100.00,SSW,203,0.0,4.0,62,0.00,,,0.00,meteohub,2013-07-20 16:17:00,
2013-07-20 11:20:00,82.2,67.8,-100.00,ENE,68,2.0,4.0,62,0.00,,,0.00,meteohub,2013-07-20 16:20:00,
2013-07-20 11:22:00,82.4,68.5,-100.00,SSW,203,0.0,4.0,63,0.00,,,0.00,meteohub,2013-07-20 16:22:00,
2013-07-20 11:26:00,82.6,68.7,-100.00,SE,135,0.0,4.0,63,0.00,,,0.00,meteohub,2013-07-20 16:26:00,
2013-07-20 11:28:00,82.9,69.1,-100.00,SE,135,0.0,4.0,63,0.00,,,0.00,meteohub,2013-07-20 16:28:00,
2013-07-20 11:32:00,83.1,68.7,-100.00,East,90,2.0,2.0,62,0.00,,,0.00,meteohub,2013-07-20 16:32:00,
2013-07-20 11:34:00,83.3,68.9,-100.00,SSE,158,2.0,2.0,62,0.00,,,0.00,meteohub,2013-07-20 16:34:00,
2013-07-20 11:40:00,83.8,69.4,-100.00,SSW,203,1.0,2.0,62,0.00,,,0.00,meteohub,2013-07-20 16:40:00,
2013-07-20 11:42:00,84.0,69.1,-100.00,ESE,113,1.0,2.0,61,0.00,,,0.00,meteohub,2013-07-20 16:42:00,
2013-07-20 11:44:00,84.4,68.9,-100.00,SE,135,2.0,2.0,60,0.00,,,0.00,meteohub,2013-07-20 16:44:00,
2013-07-20 11:47:00,84.4,68.9,-100.00,SE,135,1.0,2.0,60,0.00,,,0.00,meteohub,2013-07-20 16:47:00,
2013-07-20 11:48:00,84.4,68.5,-100.00,SSW,203,2.0,2.0,59,0.00,,,0.00,meteohub,2013-07-20 16:48:00,
2013-07-20 11:50:00,84.6,68.7,-100.00,ENE,68,2.0,2.0,59,0.00,,,0.00,meteohub,2013-07-20 16:50:00,
2013-07-20 11:52:00,84.6,68.2,-100.00,ENE,68,4.0,4.0,58,0.00,,,0.00,meteohub,2013-07-20 16:52:00,
2013-07-20 11:58:00,84.7,68.4,-100.00,SSE,158,0.0,4.0,58,0.00,,,0.00,meteohub,2013-07-20 16:58:00,
2013-07-20 12:00:00,84.7,68.4,-100.00,SSE,158,0.0,4.0,58,0.00,,,0.00,meteohub,2013-07-20 17:00:00,
2013-07-20 12:02:00,84.7,68.4,-100.00,ESE,113,2.0,4.0,58,0.00,,,0.00,meteohub,2013-07-20 17:02:00,
2013-07-20 12:04:00,84.9,68.5,-100.00,East,90,2.0,4.0,58,0.00,,,0.00,meteohub,2013-07-20 17:04:00,
2013-07-20 12:08:00,84.9,68.0,-100.00,South,180,1.0,4.0,57,0.00,,,0.00,meteohub,2013-07-20 17:08:00,
2013-07-20 12:10:00,84.9,68.5,-100.00,South,180,3.0,3.0,58,0.00,,,0.00,meteohub,2013-07-20 17:10:00,
2013-07-20 12:14:00,85.3,68.9,-100.00,ESE,113,0.0,3.0,58,0.00,,,0.00,meteohub,2013-07-20 17:14:00,
2013-07-20 12:16:00,85.6,69.1,-100.00,NW,315,0.0,3.0,58,0.00,,,0.00,meteohub,2013-07-20 17:16:00,
2013-07-20 12:17:00,85.6,69.1,-100.00,NW,315,0.0,3.0,58,0.00,,,0.00,meteohub,2013-07-20 17:17:00,
2013-07-20 12:18:00,85.6,69.1,-100.00,SW,225,5.0,5.0,58,0.00,,,0.00,meteohub,2013-07-20 17:18:00,
2013-07-20 12:22:00,86.2,69.1,-100.00,West,270,0.0,5.0,57,0.00,,,0.00,meteohub,2013-07-20 17:22:00,
2013-07-20 12:24:00,86.4,68.7,-100.00,SE,135,2.0,5.0,56,0.00,,,0.00,meteohub,2013-07-20 17:24:00,
2013-07-20 12:26:00,86.5,68.4,-100.00,South,180,2.0,5.0,55,0.00,,,0.00,meteohub,2013-07-20 17:26:00,
2013-07-20 12:28:00,86.7,68.5,-100.00,SSW,203,1.0,5.0,55,0.00,,,0.00,meteohub,2013-07-20 17:28:00,
2013-07-20 12:30:00,86.7,68.5,-100.00,SSW,203,1.0,5.0,55,0.00,,,0.00,meteohub,2013-07-20 17:30:00,
2013-07-20 12:32:00,86.7,68.5,-100.00,North,0,0.0,5.0,55,0.00,,,0.00,meteohub,2013-07-20 17:32:00,
2013-07-20 12:41:00,86.5,68.4,-100.00,West,270,0.0,3.0,55,0.00,,,0.00,meteohub,2013-07-20 17:41:00,
2013-07-20 12:43:00,86.5,68.4,-100.00,West,270,0.0,3.0,55,0.00,,,0.00,meteohub,2013-07-20 17:43:00,
2013-07-20 12:47:00,86.7,68.5,-100.00,ENE,68,0.0,3.0,55,0.00,,,0.00,meteohub,2013-07-20 17:47:00,
2013-07-20 12:51:00,87.3,68.0,-100.00,ENE,68,5.0,5.0,53,0.00,,,0.00,meteohub,2013-07-20 17:51:00,
2013-07-20 12:53:00,87.3,68.5,-100.00,South,180,2.0,3.0,54,0.00,,,0.00,meteohub,2013-07-20 17:53:00,
2013-07-20 12:57:00,87.6,68.4,-100.00,SSE,158,0.0,5.0,53,0.00,,,0.00,meteohub,2013-07-20 17:57:00,
2013-07-20 12:59:00,88.0,68.7,-100.00,ESE,113,2.0,5.0,53,0.00,,,0.00,meteohub,2013-07-20 17:59:00,
2013-07-20 13:02:00,88.0,68.7,-100.00,SSE,158,1.0,5.0,53,0.00,,,0.00,meteohub,2013-07-20 18:02:00,
2013-07-20 13:03:00,88.2,68.9,-100.00,ENE,68,4.0,5.0,53,0.00,,,0.00,meteohub,2013-07-20 18:03:00,
2013-07-20 13:05:00,88.3,68.5,-100.00,ENE,68,4.0,5.0,52,0.00,,,0.00,meteohub,2013-07-20 18:05:00,
2013-07-20 13:09:00,88.3,68.0,-100.00,ENE,68,2.0,5.0,51,0.00,,,0.00,meteohub,2013-07-20 18:09:00,
2013-07-20 13:11:00,88.3,68.0,-100.00,NNW,338,1.0,4.0,51,0.00,,,0.00,meteohub,2013-07-20 18:11:00,
2013-07-20 13:13:00,88.3,68.0,-100.00,SE,135,0.0,4.0,51,0.00,,,0.00,meteohub,2013-07-20 18:13:00,
2013-07-20 13:15:00,88.3,68.0,-100.00,WNW,293,0.0,4.0,51,0.00,,,0.00,meteohub,2013-07-20 18:15:00,
2013-07-20 13:17:00,88.3,68.0,-100.00,WNW,293,0.0,4.0,51,0.00,,,0.00,meteohub,2013-07-20 18:17:00,
2013-07-20 13:19:00,88.7,68.2,-100.00,ESE,113,1.0,4.0,51,0.00,,,0.00,meteohub,2013-07-20 18:19:00,
2013-07-20 13:26:00,88.7,68.2,-100.00,ESE,113,0.0,2.0,51,0.00,,,0.00,meteohub,2013-07-20 18:26:00,
2013-07-20 13:30:00,89.2,68.2,-100.00,NE,45,1.0,1.0,50,0.00,,,0.00,meteohub,2013-07-20 18:30:00,
2013-07-20 13:33:00,89.2,68.2,-100.00,South,180,4.0,4.0,50,0.00,,,0.00,meteohub,2013-07-20 18:33:00,
2013-07-20 13:39:00,89.4,67.8,-100.00,ESE,113,3.0,4.0,49,0.00,,,0.00,meteohub,2013-07-20 18:39:00,
2013-07-20 13:41:00,89.4,67.8,-100.00,ESE,113,3.0,4.0,49,0.00,,,0.00,meteohub,2013-07-20 18:41:00,
2013-07-20 13:43:00,89.4,67.8,-100.00,ESE,113,3.0,4.0,49,0.00,,,0.00,meteohub,2013-07-20 18:43:00,
2013-07-20 13:47:00,89.4,68.4,-100.00,West,270,0.0,4.0,50,0.00,,,0.00,meteohub,2013-07-20 18:47:00,
2013-07-20 13:49:00,89.6,67.8,-100.00,SE,135,2.0,4.0,49,0.00,,,0.00,meteohub,2013-07-20 18:49:00,
2013-07-20 13:53:00,90.0,68.2,-100.00,East,90,2.0,3.0,49,0.00,,,0.00,meteohub,2013-07-20 18:53:00,
2013-07-20 13:56:00,90.1,67.8,-100.00,ESE,113,2.0,3.0,48,0.00,,,0.00,meteohub,2013-07-20 18:56:00,
2013-07-20 13:58:00,90.3,68.0,-100.00,WNW,293,0.0,3.0,48,0.00,,,0.00,meteohub,2013-07-20 18:58:00,
2013-07-20 14:00:00,90.3,68.0,-100.00,West,270,2.0,2.0,48,0.00,,,0.00,meteohub,2013-07-20 19:00:00,
2013-07-20 14:04:00,90.7,68.4,-100.00,SE,135,1.0,2.0,48,0.00,,,0.00,meteohub,2013-07-20 19:04:00,
2013-07-20 14:08:00,91.0,68.5,-100.00,SE,135,1.0,2.0,48,0.00,,,0.00,meteohub,2013-07-20 19:08:00,
2013-07-20 14:10:00,91.2,68.7,-100.00,SSE,158,0.0,2.0,48,0.00,,,0.00,meteohub,2013-07-20 19:10:00,
2013-07-20 14:16:00,91.6,67.8,-100.00,NNW,338,2.0,4.0,46,0.00,,,0.00,meteohub,2013-07-20 19:16:00,
2013-07-20 14:19:00,91.6,67.8,-100.00,SE,135,0.0,4.0,46,0.00,,,0.00,meteohub,2013-07-20 19:19:00,
2013-07-20 14:25:00,91.2,66.9,-100.00,SE,135,0.0,4.0,45,0.00,,,0.00,meteohub,2013-07-20 19:25:00,
2013-07-20 14:28:00,91.2,66.9,-100.00,North,0,0.0,4.0,45,0.00,,,0.00,meteohub,2013-07-20 19:28:00,
2013-07-20 14:31:00,91.0,67.5,-100.00,ENE,68,2.0,2.0,46,0.00,,,0.00,meteohub,2013-07-20 19:31:00,
2013-07-20 14:32:00,91.0,67.5,-100.00,ENE,68,2.0,2.0,46,0.00,,,0.00,meteohub,2013-07-20 19:32:00,
2013-07-20 14:36:00,90.5,66.9,-100.00,SE,135,0.0,2.0,46,0.00,,,0.00,meteohub,2013-07-20 19:36:00,
2013-07-20 14:38:00,90.3,66.7,-100.00,ESE,113,4.0,4.0,46,0.00,,,0.00,meteohub,2013-07-20 19:38:00,
2013-07-20 14:40:00,90.3,66.7,-100.00,NNE,23,2.0,2.0,46,0.00,,,0.00,meteohub,2013-07-20 19:40:00,
2013-07-20 14:42:00,90.1,66.6,-100.00,ESE,113,0.0,4.0,46,0.00,,,0.00,meteohub,2013-07-20 19:42:00,
2013-07-20 14:44:00,90.1,67.1,-100.00,ESE,113,2.0,4.0,47,0.00,,,0.00,meteohub,2013-07-20 19:44:00,
2013-07-20 14:50:00,90.3,66.7,-100.00,East,90,2.0,4.0,46,0.00,,,0.00,meteohub,2013-07-20 19:50:00,
2013-07-20 14:53:00,90.3,66.7,-100.00,ESE,113,3.0,4.0,46,0.00,,,0.00,meteohub,2013-07-20 19:53:00,
2013-07-20 14:54:00,90.3,66.7,-100.00,South,180,0.0,4.0,46,0.00,,,0.00,meteohub,2013-07-20 19:54:00,
2013-07-20 14:58:00,90.0,66.4,-100.00,ESE,113,1.0,4.0,46,0.00,,,0.00,meteohub,2013-07-20 19:58:00,
2013-07-20 15:00:00,89.8,66.2,-100.00,SSE,158,0.0,4.0,46,0.00,,,0.00,meteohub,2013-07-20 20:00:00,
2013-07-20 15:02:00,89.8,66.2,-100.00,SSE,158,0.0,4.0,46,0.00,,,0.00,meteohub,2013-07-20 20:02:00,
2013-07-20 15:04:00,89.4,66.6,-100.00,ENE,68,1.0,4.0,47,0.00,,,0.00,meteohub,2013-07-20 20:04:00,
2013-07-20 15:06:00,89.4,66.6,-100.00,ENE,68,1.0,4.0,47,0.00,,,0.00,meteohub,2013-07-20 20:06:00,
2013-07-20 15:13:00,89.8,66.2,-100.00,NE,45,0.0,4.0,46,0.00,,,0.00,meteohub,2013-07-20 20:13:00,
2013-07-20 15:17:00,89.4,65.8,-100.00,SE,135,3.0,3.0,46,0.00,,,0.00,meteohub,2013-07-20 20:17:00,
2013-07-20 15:21:00,89.2,66.4,-100.00,East,90,0.0,3.0,47,0.00,,,0.00,meteohub,2013-07-20 20:21:00,
2013-07-20 15:23:00,89.2,66.4,-100.00,East,90,2.0,3.0,47,0.00,,,0.00,meteohub,2013-07-20 20:23:00,
2013-07-20 15:27:00,88.9,66.0,-100.00,SSE,158,3.0,3.0,47,0.00,,,0.00,meteohub,2013-07-20 20:27:00,
2013-07-20 15:29:00,88.9,66.0,-100.00,ENE,68,1.0,3.0,47,0.00,,,0.00,meteohub,2013-07-20 20:29:00,
2013-07-20 15:31:00,88.9,66.0,-100.00,SW,225,1.0,3.0,47,0.00,,,0.00,meteohub,2013-07-20 20:31:00,
2013-07-20 15:33:00,89.1,66.2,-100.00,East,90,1.0,3.0,47,0.00,,,0.00,meteohub,2013-07-20 20:33:00,
2013-07-20 15:35:00,89.2,66.4,-100.00,East,90,2.0,3.0,47,0.00,,,0.00,meteohub,2013-07-20 20:35:00,
2013-07-20 15:37:00,89.4,66.6,-100.00,SSE,158,2.0,3.0,47,0.00,,,0.00,meteohub,2013-07-20 20:37:00,
2013-07-20 15:39:00,89.6,66.0,-100.00,NNW,338,0.0,3.0,46,0.00,,,0.00,meteohub,2013-07-20 20:39:00,
2013-07-20 15:43:00,90.0,66.4,-100.00,East,90,1.0,3.0,46,0.00,,,0.00,meteohub,2013-07-20 20:43:00,
2013-07-20 15:45:00,90.1,66.6,-100.00,East,90,0.0,2.0,46,0.00,,,0.00,meteohub,2013-07-20 20:45:00,
2013-07-20 15:50:00,90.3,66.0,-100.00,SE,135,2.0,2.0,45,0.00,,,0.00,meteohub,2013-07-20 20:50:00,
2013-07-20 15:52:00,90.3,66.0,-100.00,ESE,113,1.0,2.0,45,0.00,,,0.00,meteohub,2013-07-20 20:52:00,
2013-07-20 15:56:00,90.3,65.5,-100.00,ENE,68,2.0,3.0,44,0.00,,,0.00,meteohub,2013-07-20 20:56:00,
2013-07-20 15:58:00,90.3,65.5,-100.00,ENE,68,2.0,3.0,44,0.00,,,0.00,meteohub,2013-07-20 20:58:00,
2013-07-20 16:00:00,90.5,65.7,-100.00,NNE,23,1.0,3.0,44,0.00,,,0.00,meteohub,2013-07-20 21:00:00,
2013-07-20 16:02:00,90.7,65.8,-100.00,NNW,338,2.0,3.0,44,0.00,,,0.00,meteohub,2013-07-20 21:02:00,
2013-07-20 16:05:00,91.0,66.0,-100.00,SSE,158,0.0,3.0,44,0.00,,,0.00,meteohub,2013-07-20 21:05:00,
2013-07-20 16:06:00,91.2,66.2,-100.00,WSW,248,4.0,4.0,44,0.00,,,0.00,meteohub,2013-07-20 21:06:00,
2013-07-20 16:08:00,91.2,66.2,-100.00,South,180,0.0,3.0,44,0.00,,,0.00,meteohub,2013-07-20 21:08:00,
2013-07-20 16:10:00,91.6,65.8,-100.00,ENE,68,4.0,4.0,43,0.00,,,0.00,meteohub,2013-07-20 21:10:00,
2013-07-20 16:15:00,91.8,66.0,-100.00,SSE,158,0.0,4.0,43,0.00,,,0.00,meteohub,2013-07-20 21:15:00,
2013-07-20 16:17:00,91.8,66.0,-100.00,SSE,158,0.0,4.0,43,0.00,,,0.00,meteohub,2013-07-20 21:17:00,
2013-07-20 16:21:00,91.9,66.2,-100.00,East,90,1.0,4.0,43,0.00,,,0.00,meteohub,2013-07-20 21:21:00,
2013-07-20 16:23:00,91.9,66.2,-100.00,ENE,68,3.0,4.0,43,0.00,,,0.00,meteohub,2013-07-20 21:23:00,
2013-07-20 16:26:00,91.9,66.2,-100.00,East,90,0.0,4.0,43,0.00,,,0.00,meteohub,2013-07-20 21:26:00,
2013-07-20 16:32:00,91.8,66.0,-100.00,East,90,3.0,4.0,43,0.00,,,0.00,meteohub,2013-07-20 21:32:00,
2013-07-20 16:36:00,91.2,65.7,-100.00,SSE,158,0.0,3.0,43,0.00,,,0.00,meteohub,2013-07-20 21:36:00,
2013-07-20 16:41:00,91.2,66.2,-100.00,SSW,203,0.0,3.0,44,0.00,,,0.00,meteohub,2013-07-20 21:41:00,
2013-07-20 16:43:00,91.2,66.2,-100.00,SSW,203,0.0,3.0,44,0.00,,,0.00,meteohub,2013-07-20 21:43:00,
2013-07-20 16:45:00,91.0,66.0,-100.00,East,90,1.0,3.0,44,0.00,,,0.00,meteohub,2013-07-20 21:45:00,
2013-07-20 16:49:00,91.2,66.2,-100.00,ENE,68,2.0,3.0,44,0.00,,,0.00,meteohub,2013-07-20 21:49:00,
2013-07-20 16:53:00,91.6,66.6,-100.00,South,180,0.0,3.0,44,0.00,,,0.00,meteohub,2013-07-20 21:53:00,
2013-07-20 16:55:00,91.6,66.6,-100.00,SSW,203,2.0,3.0,44,0.00,,,0.00,meteohub,2013-07-20 21:55:00,
2013-07-20 16:59:00,92.1,66.4,-100.00,SE,135,6.0,6.0,43,0.00,,,0.00,meteohub,2013-07-20 21:59:00,
2013-07-20 17:01:00,91.9,66.2,-100.00,SSW,203,9.0,9.0,43,0.00,,,0.00,meteohub,2013-07-20 22:01:00,
2013-07-20 17:05:00,91.9,64.9,-100.00,SW,225,6.0,9.0,41,0.00,,,0.00,meteohub,2013-07-20 22:05:00,
2013-07-20 17:09:00,91.9,65.5,-100.00,South,180,0.0,9.0,42,0.00,,,0.00,meteohub,2013-07-20 22:09:00,
2013-07-20 17:11:00,91.9,66.2,-100.00,SSW,203,4.0,9.0,43,0.00,,,0.00,meteohub,2013-07-20 22:11:00,
2013-07-20 17:16:00,91.8,65.5,-100.00,SSE,158,3.0,9.0,42,0.00,,,0.00,meteohub,2013-07-20 22:16:00,
2013-07-20 17:18:00,91.6,65.3,-100.00,SE,135,2.0,9.0,42,0.00,,,0.00,meteohub,2013-07-20 22:18:00,
2013-07-20 17:20:00,91.2,64.9,-100.00,East,90,0.0,6.0,42,0.00,,,0.00,meteohub,2013-07-20 22:20:00,
2013-07-20 17:22:00,91.2,64.9,-100.00,East,90,0.0,6.0,42,0.00,,,0.00,meteohub,2013-07-20 22:22:00,
2013-07-20 17:24:00,90.9,65.3,-100.00,East,90,1.0,6.0,43,0.00,,,0.00,meteohub,2013-07-20 22:24:00,
2013-07-20 17:27:00,90.7,65.1,-100.00,NE,45,1.0,4.0,43,0.00,,,0.00,meteohub,2013-07-20 22:27:00,
2013-07-20 17:28:00,90.3,65.5,-100.00,ESE,113,1.0,4.0,44,0.00,,,0.00,meteohub,2013-07-20 22:28:00,
2013-07-20 17:32:00,90.1,65.3,-100.00,ENE,68,0.0,3.0,44,0.00,,,0.00,meteohub,2013-07-20 22:32:00,
2013-07-20 17:34:00,89.8,64.9,-100.00,SSW,203,3.0,3.0,44,0.00,,,0.00,meteohub,2013-07-20 22:34:00,
2013-07-20 17:37:00,89.8,64.9,-100.00,South,180,2.0,2.0,44,0.00,,,0.00,meteohub,2013-07-20 22:37:00,
2013-07-20 17:41:00,89.4,64.6,-100.00,ENE,68,1.0,3.0,44,0.00,,,0.00,meteohub,2013-07-20 22:41:00,
2013-07-20 17:45:00,89.4,64.6,-100.00,ENE,68,0.0,3.0,44,0.00,,,0.00,meteohub,2013-07-20 22:45:00,
2013-07-20 17:47:00,89.2,64.4,-100.00,NE,45,1.0,3.0,44,0.00,,,0.00,meteohub,2013-07-20 22:47:00,
2013-07-20 17:53:00,88.9,64.2,-100.00,East,90,2.0,3.0,44,0.00,,,0.00,meteohub,2013-07-20 22:53:00,
2013-07-20 17:56:00,88.7,63.3,-100.00,ENE,68,1.0,3.0,43,0.00,,,0.00,meteohub,2013-07-20 22:56:00,
2013-07-20 18:02:00,88.5,63.9,-100.00,SE,135,1.0,2.0,44,0.00,,,0.00,meteohub,2013-07-20 23:02:00,
2013-07-20 18:04:00,88.5,63.9,-100.00,East,90,3.0,3.0,44,0.00,,,0.00,meteohub,2013-07-20 23:04:00,
2013-07-20 18:06:00,88.3,63.7,-100.00,East,90,2.0,3.0,44,0.00,,,0.00,meteohub,2013-07-20 23:06:00,
2013-07-20 18:08:00,88.3,63.7,-100.00,SE,135,2.0,3.0,44,0.00,,,0.00,meteohub,2013-07-20 23:08:00,
2013-07-20 18:12:00,88.3,63.7,-100.00,WSW,248,1.0,3.0,44,0.00,,,0.00,meteohub,2013-07-20 23:12:00,
2013-07-20 18:14:00,88.3,63.7,-100.00,SSW,203,0.0,3.0,44,0.00,,,0.00,meteohub,2013-07-20 23:14:00,
2013-07-20 18:17:00,88.3,63.7,-100.00,SW,225,6.0,6.0,44,0.00,,,0.00,meteohub,2013-07-20 23:17:00,
2013-07-20 18:21:00,88.3,63.7,-100.00,SSW,203,0.0,6.0,44,0.00,,,0.00,meteohub,2013-07-20 23:21:00,
2013-07-20 18:23:00,88.3,63.7,-100.00,South,180,0.0,6.0,44,0.00,,,0.00,meteohub,2013-07-20 23:23:00,
2013-07-20 18:29:00,88.0,64.0,-100.00,SSW,203,0.0,6.0,45,0.00,,,0.00,meteohub,2013-07-20 23:29:00,
2013-07-20 18:31:00,87.8,63.1,-100.00,South,180,0.0,6.0,44,0.00,,,0.00,meteohub,2013-07-20 23:31:00,
2013-07-20 18:33:00,87.6,63.0,-100.00,SSW,203,0.0,6.0,44,0.00,,,0.00,meteohub,2013-07-20 23:33:00,
2013-07-20 18:35:00,87.6,63.7,-100.00,SSE,158,0.0,6.0,45,0.00,,,0.00,meteohub,2013-07-20 23:35:00,
2013-07-20 18:37:00,87.6,63.7,-100.00,East,90,0.0,1.0,45,0.00,,,0.00,meteohub,2013-07-20 23:37:00,
2013-07-20 18:41:00,87.6,64.2,-100.00,ESE,113,0.0,1.0,46,0.00,,,0.00,meteohub,2013-07-20 23:41:00,
2013-07-20 18:43:00,87.4,64.0,-100.00,South,180,0.0,1.0,46,0.00,,,0.00,meteohub,2013-07-20 23:43:00,
2013-07-20 18:45:00,87.4,63.5,-100.00,SSW,203,0.0,0.0,45,0.00,,,0.00,meteohub,2013-07-20 23:45:00,
2013-07-20 18:49:00,87.4,64.0,-100.00,ENE,68,3.0,0.0,46,0.00,,,0.00,meteohub,2013-07-20 23:49:00,
2013-07-20 18:51:00,87.4,64.0,-100.00,ENE,68,3.0,0.0,46,0.00,,,0.00,meteohub,2013-07-20 23:51:00,
2013-07-20 18:55:00,87.3,64.0,-100.00,West,270,0.0,3.0,46,0.00,,,0.00,meteohub,2013-07-20 23:55:00,
2013-07-20 18:57:00,87.1,63.9,-100.00,ENE,68,0.0,3.0,46,0.00,,,0.00,meteohub,2013-07-20 23:57:00,
2013-07-20 19:02:00,87.1,63.9,-100.00,WSW,248,1.0,3.0,46,0.00,,,0.00,meteohub,2013-07-21 00:02:00,
2013-07-20 19:04:00,86.9,63.7,-100.00,SE,135,1.0,3.0,46,0.00,,,0.00,meteohub,2013-07-21 00:04:00,
2013-07-20 19:06:00,86.9,63.7,-100.00,South,180,0.0,3.0,46,0.00,,,0.00,meteohub,2013-07-21 00:06:00,
2013-07-20 19:08:00,86.9,63.7,-100.00,SE,135,1.0,3.0,46,0.00,,,0.00,meteohub,2013-07-21 00:08:00,
2013-07-20 19:12:00,86.7,63.5,-100.00,SSW,203,7.0,7.0,46,0.00,,,0.00,meteohub,2013-07-21 00:12:00,
2013-07-20 19:17:00,86.7,63.5,-100.00,SE,135,1.0,7.0,46,0.00,,,0.00,meteohub,2013-07-21 00:17:00,
2013-07-20 19:18:00,86.7,63.5,-100.00,SE,135,1.0,7.0,46,0.00,,,0.00,meteohub,2013-07-21 00:18:00,
2013-07-20 19:20:00,86.5,63.3,-100.00,SE,135,0.0,7.0,46,0.00,,,0.00,meteohub,2013-07-21 00:20:00,
2013-07-20 19:22:00,86.5,63.3,-100.00,SSW,203,0.0,7.0,46,0.00,,,0.00,meteohub,2013-07-21 00:22:00,
2013-07-20 19:24:00,86.5,63.3,-100.00,SSW,203,0.0,7.0,46,0.00,,,0.00,meteohub,2013-07-21 00:24:00,
2013-07-20 19:26:00,86.4,63.1,-100.00,SE,135,0.0,7.0,46,0.00,,,0.00,meteohub,2013-07-21 00:26:00,
2013-07-20 19:30:00,86.4,63.1,-100.00,SW,225,4.0,4.0,46,0.00,,,0.00,meteohub,2013-07-21 00:30:00,
2013-07-20 19:32:00,86.4,63.1,-100.00,SW,225,4.0,4.0,46,0.00,,,0.00,meteohub,2013-07-21 00:32:00,
2013-07-20 19:39:00,86.2,63.0,-100.00,SW,225,5.0,5.0,46,0.00,,,0.00,meteohub,2013-07-21 00:39:00,
2013-07-20 19:44:00,86.0,62.8,-100.00,SSW,203,0.0,5.0,46,0.00,,,0.00,meteohub,2013-07-21 00:44:00,
2013-07-20 19:47:00,85.8,63.3,-100.00,SSW,203,2.0,5.0,47,0.00,,,0.00,meteohub,2013-07-21 00:47:00,
2013-07-20 19:49:00,85.8,63.3,-100.00,SE,135,1.0,5.0,47,0.00,,,0.00,meteohub,2013-07-21 00:49:00,
2013-07-20 19:51:00,85.8,63.3,-100.00,SW,225,2.0,5.0,47,0.00,,,0.00,meteohub,2013-07-21 00:51:00,
2013-07-20 19:53:00,85.8,63.3,-100.00,WNW,293,0.0,5.0,47,0.00,,,0.00,meteohub,2013-07-21 00:53:00,
2013-07-20 19:55:00,85.8,63.3,-100.00,South,180,0.0,5.0,47,0.00,,,0.00,meteohub,2013-07-21 00:55:00,
2013-07-20 19:57:00,85.6,63.7,-100.00,SSW,203,2.0,3.0,48,0.00,,,0.00,meteohub,2013-07-21 00:57:00,
2013-07-20 19:59:00,85.6,63.7,-100.00,NE,45,0.0,3.0,48,0.00,,,0.00,meteohub,2013-07-21 00:59:00,
2013-07-20 20:02:00,85.6,63.7,-100.00,East,90,0.0,2.0,48,0.00,,,0.00,meteohub,2013-07-21 01:02:00,
2013-07-20 20:07:00,85.3,63.3,-100.00,ESE,113,1.0,2.0,48,0.00,,,0.00,meteohub,2013-07-21 01:07:00,
2013-07-20 20:11:00,85.3,63.3,-100.00,SE,135,0.0,2.0,48,0.00,,,0.00,meteohub,2013-07-21 01:11:00,
2013-07-20 20:12:00,85.3,63.3,-100.00,ESE,113,1.0,2.0,48,0.00,,,0.00,meteohub,2013-07-21 01:12:00,
2013-07-20 20:14:00,85.3,64.0,-100.00,NE,45,0.0,2.0,49,0.00,,,0.00,meteohub,2013-07-21 01:14:00,
2013-07-20 20:17:00,85.1,63.9,-100.00,SSW,203,0.0,1.0,49,0.00,,,0.00,meteohub,2013-07-21 01:17:00,
2013-07-20 20:20:00,84.9,63.7,-100.00,ESE,113,0.0,1.0,49,0.00,,,0.00,meteohub,2013-07-21 01:20:00,
2013-07-20 20:23:00,84.9,63.7,-100.00,East,90,4.0,4.0,49,0.00,,,0.00,meteohub,2013-07-21 01:23:00,
2013-07-20 20:27:00,84.7,64.0,-100.00,ESE,113,0.0,4.0,50,0.00,,,0.00,meteohub,2013-07-21 01:27:00,
2013-07-20 20:31:00,84.7,64.0,-100.00,ESE,113,0.0,4.0,50,0.00,,,0.00,meteohub,2013-07-21 01:31:00,
2013-07-20 20:32:00,84.7,64.0,-100.00,ESE,113,0.0,4.0,50,0.00,,,0.00,meteohub,2013-07-21 01:32:00,
2013-07-20 20:33:00,84.4,63.7,-100.00,East,90,0.0,4.0,50,0.00,,,0.00,meteohub,2013-07-21 01:33:00,
2013-07-20 20:35:00,84.6,63.9,-100.00,SE,135,0.0,4.0,50,0.00,,,0.00,meteohub,2013-07-21 01:35:00,
2013-07-20 20:38:00,84.4,63.7,-100.00,East,90,0.0,4.0,50,0.00,,,0.00,meteohub,2013-07-21 01:38:00,
2013-07-20 20:40:00,84.4,64.2,-100.00,East,90,0.0,4.0,51,0.00,,,0.00,meteohub,2013-07-21 01:40:00,
2013-07-20 20:42:00,84.2,64.0,-100.00,ESE,113,0.0,2.0,51,0.00,,,0.00,meteohub,2013-07-21 01:42:00,
2013-07-20 20:46:00,84.0,63.9,-100.00,East,90,0.0,2.0,51,0.00,,,0.00,meteohub,2013-07-21 01:46:00,
2013-07-20 20:47:00,84.0,63.9,-100.00,East,90,0.0,2.0,51,0.00,,,0.00,meteohub,2013-07-21 01:47:00,
2013-07-20 20:52:00,83.8,63.9,-100.00,ENE,68,1.0,2.0,51,0.00,,,0.00,meteohub,2013-07-21 01:52:00,
2013-07-20 20:54:00,83.8,64.4,-100.00,SE,135,1.0,2.0,52,0.00,,,0.00,meteohub,2013-07-21 01:54:00,
2013-07-20 20:58:00,83.5,64.0,-100.00,ESE,113,0.0,2.0,52,0.00,,,0.00,meteohub,2013-07-21 01:58:00,
2013-07-20 21:00:00,83.5,64.0,-100.00,East,90,1.0,1.0,52,0.00,,,0.00,meteohub,2013-07-21 02:00:00,
2013-07-20 21:04:00,83.3,63.9,-100.00,ENE,68,0.0,1.0,52,0.00,,,0.00,meteohub,2013-07-21 02:04:00,
2013-07-20 21:07:00,83.3,63.9,-100.00,ENE,68,0.0,1.0,52,0.00,,,0.00,meteohub,2013-07-21 02:07:00,
2013-07-20 21:11:00,83.1,64.2,-100.00,ESE,113,0.0,1.0,53,0.00,,,0.00,meteohub,2013-07-21 02:11:00,
2013-07-20 21:14:00,83.1,64.2,-100.00,ENE,68,0.0,1.0,53,0.00,,,0.00,meteohub,2013-07-21 02:14:00,
2013-07-20 21:15:00,83.1,64.2,-100.00,East,90,0.0,1.0,53,0.00,,,0.00,meteohub,2013-07-21 02:15:00,
2013-07-20 21:17:00,82.9,64.0,-100.00,East,90,0.0,1.0,53,0.00,,,0.00,meteohub,2013-07-21 02:17:00,
2013-07-20 21:21:00,82.8,64.4,-100.00,East,90,0.0,0.0,54,0.00,,,0.00,meteohub,2013-07-21 02:21:00,
2013-07-20 21:23:00,82.6,64.2,-100.00,East,90,0.0,0.0,54,0.00,,,0.00,meteohub,2013-07-21 02:23:00,
2013-07-20 21:32:00,82.2,64.4,-100.00,East,90,0.0,0.0,55,0.00,,,0.00,meteohub,2013-07-21 02:32:00,
2013-07-20 21:36:00,82.0,63.7,-100.00,North,0,0.0,0.0,54,0.00,,,0.00,meteohub,2013-07-21 02:36:00,
2013-07-20 21:42:00,81.7,63.9,-100.00,ESE,113,0.0,0.0,55,0.00,,,0.00,meteohub,2013-07-21 02:42:00,
2013-07-20 21:44:00,81.7,63.9,-100.00,ESE,113,0.0,0.0,55,0.00,,,0.00,meteohub,2013-07-21 02:44:00,
2013-07-20 21:52:00,81.1,64.0,-100.00,ESE,113,0.0,0.0,56,0.00,,,0.00,meteohub,2013-07-21 02:52:00,
2013-07-20 21:53:00,81.1,64.0,-100.00,ESE,113,0.0,0.0,56,0.00,,,0.00,meteohub,2013-07-21 02:53:00,
2013-07-20 21:55:00,81.0,63.9,-100.00,East,90,0.0,0.0,56,0.00,,,0.00,meteohub,2013-07-21 02:55:00,
2013-07-20 22:00:00,81.0,63.9,-100.00,East,90,0.0,0.0,56,0.00,,,0.00,meteohub,2013-07-21 03:00:00,
2013-07-20 22:02:00,80.8,64.0,-100.00,East,90,0.0,0.0,57,0.00,,,0.00,meteohub,2013-07-21 03:02:00,
2013-07-20 22:08:00,80.4,63.9,-100.00,East,90,0.0,0.0,57,0.00,,,0.00,meteohub,2013-07-21 03:08:00,
2013-07-20 22:12:00,80.2,63.7,-100.00,ESE,113,0.0,0.0,57,0.00,,,0.00,meteohub,2013-07-21 03:12:00,
2013-07-20 22:15:00,80.2,63.7,-100.00,ESE,113,0.0,0.0,57,0.00,,,0.00,meteohub,2013-07-21 03:15:00,
2013-07-20 22:17:00,80.2,63.7,-100.00,ESE,113,0.0,1.0,57,0.00,,,0.00,meteohub,2013-07-21 03:17:00,
2013-07-20 22:19:00,80.2,64.0,-100.00,ENE,68,0.0,1.0,58,0.00,,,0.00,meteohub,2013-07-21 03:19:00,
2013-07-20 22:21:00,80.2,64.0,-100.00,SE,135,4.0,4.0,58,0.00,,,0.00,meteohub,2013-07-21 03:21:00,
2013-07-20 22:23:00,80.2,64.6,-100.00,SSE,158,5.0,5.0,59,0.00,,,0.00,meteohub,2013-07-21 03:23:00,
2013-07-20 22:25:00,80.1,64.9,-100.00,North,0,0.0,5.0,60,0.00,,,0.00,meteohub,2013-07-21 03:25:00,
2013-07-20 22:30:00,80.1,64.9,-100.00,East,90,0.0,5.0,60,0.00,,,0.00,meteohub,2013-07-21 03:30:00,
2013-07-20 22:32:00,79.9,65.3,-100.00,ESE,113,2.0,5.0,61,0.00,,,0.00,meteohub,2013-07-21 03:32:00,
2013-07-20 22:38:00,79.9,65.7,-100.00,ESE,113,1.0,5.0,62,0.00,,,0.00,meteohub,2013-07-21 03:38:00,
2013-07-20 22:42:00,79.7,66.0,-100.00,ENE,68,0.0,5.0,63,0.00,,,0.00,meteohub,2013-07-21 03:42:00,
2013-07-20 22:44:00,79.7,66.0,-100.00,East,90,2.0,5.0,63,0.00,,,0.00,meteohub,2013-07-21 03:44:00,
2013-07-20 22:46:00,79.5,65.8,-100.00,NE,45,3.0,3.0,63,0.00,,,0.00,meteohub,2013-07-21 03:46:00,
2013-07-20 22:47:00,79.5,66.2,-100.00,NE,45,0.0,2.0,64,0.00,,,0.00,meteohub,2013-07-21 03:47:00,
2013-07-20 22:52:00,79.3,66.0,-100.00,East,90,0.0,3.0,64,0.00,,,0.00,meteohub,2013-07-21 03:52:00,
2013-07-20 22:54:00,79.3,66.0,-100.00,ENE,68,0.0,3.0,64,0.00,,,0.00,meteohub,2013-07-21 03:54:00,
2013-07-20 22:58:00,79.2,66.4,-100.00,East,90,0.0,3.0,65,0.00,,,0.00,meteohub,2013-07-21 03:58:00,
2013-07-20 23:00:00,79.2,66.4,-100.00,ENE,68,0.0,3.0,65,0.00,,,0.00,meteohub,2013-07-21 04:00:00,
2013-07-20 23:02:00,79.2,66.4,-100.00,ENE,68,0.0,3.0,65,0.00,,,0.00,meteohub,2013-07-21 04:02:00,
2013-07-20 23:04:00,79.0,66.2,-100.00,ESE,113,0.0,3.0,65,0.00,,,0.00,meteohub,2013-07-21 04:04:00,
2013-07-20 23:10:00,79.0,66.2,-100.00,ESE,113,0.0,0.0,65,0.00,,,0.00,meteohub,2013-07-21 04:10:00,
2013-07-20 23:12:00,78.8,66.0,-100.00,ESE,113,0.0,0.0,65,0.00,,,0.00,meteohub,2013-07-21 04:12:00,
2013-07-20 23:14:00,78.6,66.4,-100.00,ENE,68,0.0,0.0,66,0.00,,,0.00,meteohub,2013-07-21 04:14:00,
2013-07-20 23:16:00,78.6,66.4,-100.00,ESE,113,0.0,0.0,66,0.00,,,0.00,meteohub,2013-07-21 04:16:00,
2013-07-20 23:17:00,78.6,66.4,-100.00,ESE,113,0.0,0.0,66,0.00,,,0.00,meteohub,2013-07-21 04:17:00,
2013-07-20 23:20:00,78.6,66.4,-100.00,SSE,158,0.0,0.0,66,0.00,,,0.00,meteohub,2013-07-21 04:20:00,
2013-07-20 23:22:00,78.6,66.4,-100.00,NE,45,0.0,0.0,66,0.00,,,0.00,meteohub,2013-07-21 04:22:00,
2013-07-20 23:28:00,78.4,66.6,-100.00,SE,135,0.0,0.0,67,0.00,,,0.00,meteohub,2013-07-21 04:28:00,
2013-07-20 23:30:00,78.1,66.2,-100.00,SE,135,0.0,0.0,67,0.00,,,0.00,meteohub,2013-07-21 04:30:00,
2013-07-20 23:32:00,78.4,66.6,-100.00,WSW,248,0.0,0.0,67,0.00,,,0.00,meteohub,2013-07-21 04:32:00,
2013-07-20 23:34:00,78.1,66.2,-100.00,WSW,248,0.0,0.0,67,0.00,,,0.00,meteohub,2013-07-21 04:34:00,
2013-07-20 23:38:00,78.1,66.7,-100.00,WSW,248,0.0,0.0,68,0.00,,,0.00,meteohub,2013-07-21 04:38:00,
2013-07-20 23:40:00,78.1,66.7,-100.00,WSW,248,0.0,0.0,68,0.00,,,0.00,meteohub,2013-07-21 04:40:00,
2013-07-20 23:42:00,78.1,66.7,-100.00,WSW,248,0.0,0.0,68,0.00,,,0.00,meteohub,2013-07-21 04:42:00,
2013-07-20 23:44:00,77.9,66.9,-100.00,WSW,248,0.0,0.0,69,0.00,,,0.00,meteohub,2013-07-21 04:44:00,
2013-07-20 23:50:00,77.7,66.7,-100.00,NE,45,0.0,0.0,69,0.00,,,0.00,meteohub,2013-07-21 04:50:00,
2013-07-20 23:52:00,77.7,66.7,-100.00,West,270,0.0,0.0,69,0.00,,,0.00,meteohub,2013-07-21 04:52:00,
2013-07-20 23:56:00,77.5,66.6,-100.00,West,270,0.0,0.0,69,0.00,,,0.00,meteohub,2013-07-21 04:56:00,
2013-07-20 23:58:00,77.5,66.6,-100.00,WSW,248,0.0,0.0,69,0.00,,,0.00,meteohub,2013-07-21 04:58:00,